Location: ???????
(52.3000°N, 54.4667°E)
Time: 11:02:57
(UTC+00:00)

Cosmos 494 Rocket - Pass Details

Date: 24 January 2020
Orbit: 743 x 770 km, 74.1° (Epoch: 18 February)

Event Time Altitude Azimuth Distance (km) Brightness Sun altitude
Rises 13:35:11 0° 333° (NNW) 3,197 7.3 -6.5°
Reaches altitude 10° 13:37:33 10° 333° (NNW) 2,268 6.5 -6.9°
Maximum altitude 13:42:40 79° 248° (WSW) 765 4.2 -7.6°
Drops below altitude 10° 13:47:47 10° 162° (SSE) 2,256 6.5 -8.3°
Sets 13:50:08 0° 161° (SSE) 3,178 7.2 -8.7°
